Weather History for KERI - November, 2011

Change the Weather History Date:

Friday, November 4, 2011

  Actual Average Record
Temperature  
Mean Temperature 42 °F 47 °F  
Max Temperature 48 °F 55 °F 76 °F (1935)
Min Temperature 36 °F 40 °F 21 °F (1991)
Degree Days  
Heating Degree Days 23 18  
Month to date heating degree days 59 69  
Since 1 July heating degree days 503 572  
Cooling Degree Days 0 0  
Month to date cooling degree days 0 0  
Year to date cooling degree days 830 638  
Moisture  
Dew Point 32 °F    
Average Humidity 64    
Maximum Humidity 82    
Minimum Humidity 45    
Precipitation  
Precipitation 0.00 in 0.13 in 2.28 in (1985)
Month to date precipitation 0.00 0.52  
Year to date precipitation 47.82 35.01  
Snow  
Snow 0.00 in 0.10 in - ()
Month to date snowfall 0.0 0.5  
Since 1 July snowfall 0.0 0.7  
Since 1 September snowfall 0.0 0.7  
Snow Depth 0.00 in    
Sea Level Pressure  
Sea Level Pressure 30.21 in    
Wind  
Wind Speed 14 mph (NE)    
Max Wind Speed 22 mph    
Max Gust Speed 30 mph    
Visibility 10 miles    
Events      
T = Trace of Precipitation, MM = Missing Value Source: NWS Daily Summary

Daily Weather History Graph

Daily Weather History Graph

Search for Another Location

Airport or City:

Trip Planner

Search our weather history database for the weather conditions in past years. The results will help you decide how hot, cold, wet, or windy it might be!

Date:

Astronomy

Nov. 04, 2011 Rise Set
Actual Time 7:56 AM EDT 6:11 PM EDT
Civil Twilight 7:27 AM EDT 6:40 PM EDT
Nautical Twilight 6:54 AM EDT 7:13 PM EDT
Astronomical Twilight 6:21 AM EDT 7:46 PM EDT
Moon 3:07 PM EDT (11/4) 2:01 AM EDT (11/4)
Length of Visible Light 11h 12m
Length of Day
10h 14m
Waxing Gibbous, 69% of the Moon is Illuminated
Nov 4
Waxing Gibbous
Nov 10
Full
Nov 18
Last Quarter
Nov 25
New
Dec 2
First Quarter

Hourly Weather History & Observations

Time (EDT) Temp. Windchill Dew Point Humidity Pressure Visibility Wind Dir Wind Speed Gust Speed Precip Events Conditions
12:27 AM 48.2 °F - 42.8 °F 82% 30.05 in 10.0 mi NE 15.0 mph 27.6 mph N/A   Overcast
12:51 AM 48.0 °F - 42.1 °F 80% 30.06 in 10.0 mi NE 17.3 mph 24.2 mph N/A   Overcast
1:51 AM 46.9 °F - 41.0 °F 80% 30.07 in 10.0 mi NNE 15.0 mph 23.0 mph N/A   Overcast
2:51 AM 46.4 °F 39.0 °F 37.4 °F 71% 30.06 in 10.0 mi NE 19.6 mph 26.5 mph N/A   Overcast
3:51 AM 45.0 °F 37.1 °F 37.0 °F 74% 30.08 in 10.0 mi NE 19.6 mph 26.5 mph N/A   Mostly Cloudy
4:51 AM 45.0 °F 38.2 °F 36.0 °F 71% 30.11 in 10.0 mi NE 15.0 mph 21.9 mph N/A   Overcast
5:51 AM 44.1 °F 36.2 °F 36.0 °F 73% 30.14 in 10.0 mi NE 18.4 mph 24.2 mph N/A   Mostly Cloudy
6:23 AM 42.8 °F 34.3 °F 35.6 °F 76% 30.14 in 10.0 mi NE 19.6 mph 25.3 mph N/A   Scattered Clouds
6:51 AM 43.0 °F 34.5 °F 35.1 °F 74% 30.17 in 10.0 mi NNE 19.6 mph 26.5 mph N/A   Mostly Cloudy
7:19 AM 42.8 °F 35.8 °F 33.8 °F 70% 30.16 in 10.0 mi NE 13.8 mph 24.2 mph N/A   Scattered Clouds
7:46 AM 42.8 °F 35.4 °F 33.8 °F 70% 30.17 in 10.0 mi NE 15.0 mph 25.3 mph N/A   Mostly Cloudy
7:51 AM 42.1 °F 33.6 °F 33.1 °F 70% 30.18 in 10.0 mi NE 18.4 mph 24.2 mph N/A   Mostly Cloudy
8:51 AM 42.1 °F 33.9 °F 30.9 °F 65% 30.20 in 10.0 mi ENE 17.3 mph 23.0 mph N/A   Mostly Cloudy
9:51 AM 43.0 °F 36.0 °F 32.0 °F 65% 30.22 in 10.0 mi ENE 13.8 mph - N/A   Partly Cloudy
10:51 AM 44.1 °F 36.8 °F 28.0 °F 53% 30.25 in 10.0 mi ENE 16.1 mph - N/A   Clear
11:51 AM 46.0 °F 39.6 °F 27.0 °F 47% 30.25 in 10.0 mi NE 15.0 mph 21.9 mph N/A   Clear
12:51 PM 46.0 °F 38.5 °F 30.0 °F 54% 30.26 in 10.0 mi NE 19.6 mph 24.2 mph N/A   Clear
1:51 PM 46.0 °F 38.8 °F 30.0 °F 54% 30.25 in 10.0 mi NE 18.4 mph 24.2 mph N/A   Clear
2:51 PM 46.9 °F - 28.9 °F 50% 30.26 in 10.0 mi NNE 15.0 mph 23.0 mph N/A   Clear
3:51 PM 46.9 °F - 30.0 °F 52% 30.26 in 10.0 mi NE 11.5 mph 21.9 mph N/A   Clear
4:51 PM 46.0 °F 41.0 °F 30.9 °F 56% 30.27 in 10.0 mi NE 10.4 mph - N/A   Clear
5:51 PM 45.0 °F 39.3 °F 28.9 °F 53% 30.28 in 10.0 mi NE 11.5 mph 18.4 mph N/A   Clear
6:51 PM 44.1 °F 38.6 °F 28.0 °F 53% 30.30 in 10.0 mi NE 10.4 mph - N/A   Clear
7:51 PM 44.1 °F 38.6 °F 28.9 °F 55% 30.31 in 10.0 mi NE 10.4 mph - N/A   Clear
8:51 PM 42.1 °F 36.6 °F 28.9 °F 60% 30.32 in 10.0 mi ENE 9.2 mph - N/A   Clear
9:51 PM 39.0 °F 34.8 °F 28.9 °F 67% 30.33 in 10.0 mi East 5.8 mph - N/A   Clear
10:51 PM 37.9 °F 32.1 °F 27.0 °F 65% 30.35 in 10.0 mi East 8.1 mph - N/A   Clear
11:51 PM 37.9 °F 32.7 °F 27.0 °F 65% 30.36 in 10.0 mi ESE 6.9 mph - N/A   Clear